{"data":{"norad_id":64383,"epoch":"2026-09-20T00:35:36.017088Z","epoch_age_seconds":175505,"freshness":"STALE","line1":"1 64383U 25127P   26263.02472242  .00008504  00000+0  31819-3 0  9994","line2":"2 64383  43.0017 162.6664 0001013 264.8759  95.1977 15.27579968 72138","mean_motion":15.27579968,"eccentricity":0.0001013,"inclination_deg":43.0017,"raan_deg":162.6664,"arg_perigee_deg":264.8759,"mean_anomaly_deg":95.1977,"bstar":0.00031819,"rev_number":7213,"period_min":94.266750688367,"perigee_km":482.35415369793,"apogee_km":483.7442300204,"semimajor_km":6861.1861918592,"source":"CELESTRAK","updated_at":"2026-09-21T09:00:35.324598Z"}}